Total_Precipitation_Accumulation
0.04 0.07 0.10 0.19 0.14 0.36 0.56 0.29 0.56 0.49 0.16 0.04 0.04 0.09 0.14 0.18 0.29 0.36 0.00 0.02 0.00 0.00 0.00 0.01 0.03 0.01 0.00 0.01 0.02 0.02 0.02 0.04 0.05 0.07 0.06 0.01 0.00 0.00 0.00 0.01 0.02 0.02 0.02 0.01 0.00 0.00 0.04 0.03 0.03
0.04 0.03 0.16 0.11 0.14 0.36 0.75 0.25 0.18 0.27 0.19 0.02 0.03 0.06 0.05 0.02 0.00 0.00 0.02 0.01 0.00 0.00 0.00 0.00 0.02 0.01 0.00 0.01 0.02 0.03 0.06 0.04 0.03 0.04 0.05 0.03 0.00 0.00 0.00 0.00 0.01 0.02 0.03 0.01 0.01 0.03 0.02 0.05 0.12
0.07 0.06 0.83 0.78 0.38 0.84 0.31 0.11 0.15 0.12 0.06 0.03 0.04 0.06 0.09 0.00 0.00 0.01 0.03 0.02 0.00 0.00 0.00 0.00 0.02 0.01 0.00 0.00 0.01 0.01 0.03 0.04 0.05 0.03 0.02 0.02 0.00 0.00 0.00 0.00 0.00 0.00 0.00 0.01 0.01 0.05 0.07 0.05 0.26
0.02 0.10 0.11 0.31 0.58 0.51 0.44 0.24 0.14 0.06 0.01 0.01 0.17 0.06 0.01 0.00 0.00 0.00 0.01 0.00 0.00 0.00 0.00 0.01 0.01 0.00 0.00 0.00 0.01 0.03 0.06 0.08 0.12 0.17 0.18 0.08 0.01 0.00 0.00 0.00 0.00 0.00 0.00 0.00 0.03 0.14 0.21 0.16 0.27
0.06 0.66 0.41 0.12 0.15 0.22 0.20 0.21 0.10 0.06 0.06 0.03 0.02 0.02 0.01 0.03 0.01 0.02 0.00 0.01 0.00 0.00 0.00 0.01 0.03 0.02 0.01 0.01 0.01 0.03 0.08 0.16 0.20 0.17 0.24 0.24 0.18 0.03 0.01 0.00 0.00 0.00 0.00 0.00 0.11 0.29 0.23 0.19 0.28
0.09 0.10 0.23 0.09 0.09 0.05 0.06 0.15 0.33 0.05 0.02 0.01 0.03 0.00 0.02 0.02 0.00 0.00 0.00 0.00 0.00 0.00 0.00 0.01 0.03 0.03 0.05 0.03 0.01 0.03 0.04 0.07 0.11 0.18 0.19 0.23 0.28 0.26 0.05 0.00 0.00 0.00 0.00 0.02 0.07 0.24 0.33 0.34 0.19
0.03 0.10 0.04 0.02 0.01 0.01 0.00 0.03 0.09 0.08 0.07 0.12 0.01 0.01 0.03 0.02 0.01 0.00 0.00 0.01 0.00 0.01 0.00 0.01 0.01 0.02 0.03 0.04 0.01 0.02 0.05 0.08 0.15 0.23 0.29 0.19 0.21 0.22 0.12 0.01 0.00 0.00 0.00 0.00 0.14 0.31 0.26 0.43 0.68
0.02 0.05 0.01 0.02 0.03 0.06 0.00 0.00 0.02 0.09 0.29 0.04 0.04 0.05 0.03 0.08 0.16 0.06 0.03 0.04 0.04 0.17 0.04 0.03 0.01 0.01 0.03 0.06 0.04 0.07 0.06 0.16 0.25 0.38 0.30 0.27 0.28 0.20 0.08 0.02 0.02 0.03 0.11 0.11 0.30 0.40 0.14 0.27 0.49
0.00 0.00 0.00 0.00 0.01 0.03 0.01 0.02 0.01 0.02 0.07 0.06 0.05 0.04 0.01 0.01 0.07 0.07 0.08 0.12 0.04 0.13 0.21 0.02 0.01 0.01 0.02 0.04 0.06 0.15 0.14 0.24 0.51 0.48 0.52 0.40 0.24 0.14 0.13 0.05 0.04 0.01 0.13 0.22 0.27 0.25 0.16 0.22 0.44
0.00 0.01 0.00 0.00 0.00 0.00 0.00 0.03 0.01 0.01 0.14 0.15 0.13 0.03 0.00 0.00 0.04 0.03 0.01 0.01 0.00 0.01 0.03 0.02 0.00 0.00 0.01 0.03 0.14 0.23 0.47 0.80 0.58 0.28 0.32 0.39 0.11 0.08 0.11 0.08 0.12 0.20 0.17 0.26 0.20 0.16 0.14 0.54 0.57
0.00 0.00 0.00 0.00 0.00 0.00 0.00 0.02 0.01 0.03 0.40 0.58 0.32 0.05 0.00 0.01 0.08 0.07 0.05 0.06 0.01 0.01 0.03 0.03 0.01 0.00 0.01 0.13 0.22 0.35 0.92 0.52 0.28 0.21 0.20 0.15 0.04 0.17 0.19 0.05 0.04 0.07 0.13 0.11 0.13 0.25 0.35 0.52 0.52
0.00 0.00 0.00 0.00 0.00 0.00 0.00 0.00 0.00 0.01 0.26 0.06 0.07 0.05 0.01 0.02 0.13 0.18 0.11 0.06 0.04 0.02 0.03 0.05 0.01 0.05 0.03 0.03 0.12 0.50 0.38 0.18 0.22 0.10 0.03 0.02 0.02 0.05 0.15 0.10 0.13 0.15 0.03 0.05 0.06 0.06 0.13 0.21 0.27
0.00 0.00 0.00 0.00 0.00 0.00 0.00 0.00 0.00 0.01 0.00 0.00 0.06 0.04 0.02 0.04 0.20 0.27 0.11 0.06 0.07 0.07 0.04 0.08 0.11 0.13 0.08 0.11 0.44 0.43 0.22 0.26 0.41 0.41 0.25 0.26 0.21 0.13 0.03 0.15 0.16 0.18 0.04 0.01 0.01 0.04 0.10 0.22 0.42
0.00 0.00 0.00 0.00 0.00 0.00 0.00 0.00 0.00 0.01 0.00 0.01 0.04 0.05 0.06 0.10 0.30 0.66 0.31 0.44 0.19 0.17 0.07 0.14 0.18 0.14 0.06 0.13 0.34 0.39 0.41 0.16 0.28 0.33 0.42 0.32 0.23 0.23 0.07 0.04 0.02 0.04 0.04 0.05 0.05 0.17 0.22 0.63 0.76
0.00 0.00 0.00 0.00 0.00 0.00 0.00 0.00 0.02 0.01 0.00 0.06 0.05 0.28 0.24 0.52 0.88 2.76 1.97 1.27 0.71 0.31 0.09 0.06 0.07 0.06 0.12 0.32 0.38 0.41 0.47 0.19 0.21 0.40 0.26 0.01 0.00 0.00 0.05 0.01 0.00 0.02 0.11 0.09 0.06 0.11 0.18 0.27 0.34
0.00 0.00 0.00 0.00 0.00 0.00 0.00 0.09 0.08 0.06 0.05 0.29 0.48 0.59 0.33 0.89 1.32 2.29 1.76 2.19 2.12 0.36 0.27 0.13 0.04 0.08 0.08 0.10 0.26 0.57 0.40 0.20 0.21 0.53 0.59 0.15 0.00 0.01 0.01 0.00 0.03 0.13 0.08 0.19 0.29 0.25 0.30 0.17 0.12
0.00 0.00 0.00 0.00 0.00 0.00 0.00 0.22 0.04 0.03 0.10 0.51 0.96 0.61 0.71 1.50 1.68 1.74 1.13 0.69 0.40 0.36 0.30 0.76 0.36 0.19 0.24 0.25 0.28 0.27 0.21 0.11 0.25 0.61 0.64 0.21 0.03 0.00 0.00 0.01 0.08 0.14 0.20 0.27 0.25 0.15 0.34 0.34 0.19
0.00 0.00 0.00 0.00 0.00 0.00 0.00 0.00 0.00 0.02 0.10 0.43 0.36 0.22 1.24 1.70 1.25 0.71 0.44 0.28 0.17 0.42 0.19 0.43 0.32 0.24 0.40 0.27 0.26 0.26 0.27 0.25 0.27 0.46 0.52 0.51 0.26 0.03 0.00 0.00 0.03 0.02 0.27 0.39 0.30 0.33 0.23 0.19 0.15
0.00 0.00 0.00 0.00 0.00 0.00 0.00 0.00 0.00 0.02 0.09 0.14 0.10 0.26 1.03 0.84 0.65 0.26 0.10 0.30 0.27 0.50 0.21 0.14 0.20 0.22 0.16 0.32 0.30 0.35 0.32 0.26 0.46 0.65 1.04 0.92 0.65 0.05 0.00 0.01 0.00 0.01 0.25 0.32 0.32 0.31 0.20 0.13 0.20
0.00 0.00 0.00 0.00 0.00 0.00 0.00 0.00 0.00 0.01 0.02 0.00 0.03 0.03 0.12 0.15 0.18 0.10 0.05 0.43 0.40 0.14 0.15 0.25 0.27 0.28 0.41 0.39 0.24 0.31 0.20 0.23 0.51 0.60 0.48 0.42 0.24 0.16 0.08 0.11 0.06 0.01 0.16 0.17 0.21 0.32 0.30 0.48 0.89
0.00 0.00 0.00 0.00 0.00 0.00 0.00 0.03 0.02 0.01 0.00 0.00 0.02 0.01 0.00 0.01 0.00 0.01 0.04 0.08 0.48 0.12 0.17 0.24 0.25 0.24 0.30 0.24 0.32 0.34 0.34 0.56 0.68 0.71 0.69 0.41 0.25 0.20 0.05 0.04 0.20 0.06 0.03 0.05 0.14 0.28 0.15 0.33 0.40
0.00 0.00 0.00 0.00 0.00 0.00 0.00 0.14 0.08 0.02 0.02 0.03 0.03 0.01 0.00 0.00 0.00 0.00 0.03 0.04 0.11 0.02 0.02 0.05 0.08 0.15 0.17 0.10 0.26 0.47 0.68 0.72 0.49 0.35 0.25 0.10 0.22 0.30 0.25 0.11 0.11 0.09 0.03 0.12 0.09 0.20 0.22 0.42 0.42
0.00 0.00 0.00 0.00 0.00 0.00 0.00 0.03 0.32 0.09 0.03 0.03 0.03 0.01 0.01 0.00 0.00 0.00 0.00 0.02 0.01 0.01 0.01 0.00 0.03 0.04 0.04 0.08 0.24 0.63 0.47 0.55 0.42 0.29 0.21 0.23 0.17 0.11 0.07 0.18 0.15 0.16 0.04 0.07 0.06 0.24 0.23 0.27 0.32
0.00 0.00 0.00 0.00 0.00 0.00 0.00 0.02 0.21 0.09 0.05 0.02 0.01 0.01 0.00 0.00 0.00 0.00 0.01 0.02 0.01 0.00 0.00 0.00 0.03 0.06 0.03 0.10 0.24 0.34 0.33 0.29 0.24 0.32 0.28 0.33 0.21 0.28 0.24 0.15 0.11 0.13 0.10 0.13 0.13 0.11 0.22 0.35 0.32
0.00 0.00 0.00 0.00 0.00 0.01 0.02 0.16 0.44 0.06 0.03 0.02 0.00 0.00 0.00 0.00 0.00 0.01 0.01 0.01 0.02 0.01 0.00 0.00 0.02 0.06 0.13 0.14 0.20 0.20 0.16 0.11 0.22 0.31 0.28 0.38 0.27 0.16 0.21 0.15 0.11 0.05 0.03 0.07 0.12 0.11 0.11 0.27 0.31
0.00 0.00 0.02 0.01 0.05 0.02 0.06 0.19 0.20 0.08 0.04 0.03 0.01 0.00 0.00 0.00 0.01 0.01 0.03 0.04 0.06 0.03 0.00 0.00 0.01 0.04 0.09 0.21 0.16 0.21 0.11 0.26 0.22 0.14 0.09 0.06 0.02 0.02 0.03 0.11 0.11 0.08 0.08 0.02 0.07 0.05 0.05 0.04 0.10
0.00 0.00 0.00 0.00 0.01 0.00 0.12 0.39 0.50 0.30 0.13 0.05 0.00 0.00 0.00 0.00 0.00 0.02 0.02 0.01 0.02 0.03 0.02 0.02 0.07 0.13 0.20 0.27 0.25 0.27 0.29 0.28 0.23 0.15 0.15 0.10 0.01 0.01 0.01 0.03 0.06 0.05 0.07 0.09 0.04 0.04 0.02 0.08 0.05
0.00 0.00 0.00 0.00 0.00 0.00 0.08 0.24 0.87 0.88 0.24 0.23 0.14 0.04 0.00 0.00 0.00 0.00 0.00 0.00 0.00 0.00 0.01 0.01 0.01 0.08 0.47 0.22 0.29 0.29 0.31 0.22 0.10 0.12 0.27 0.29 0.14 0.06 0.05 0.05 0.03 0.02 0.03 0.03 0.03 0.00 0.01 0.02 0.03
0.00 0.00 0.00 0.00 0.00 0.01 0.12 0.15 0.32 0.34 0.25 0.18 0.23 0.18 0.05 0.06 0.05 0.05 0.04 0.01 0.00 0.02 0.04 0.02 0.07 0.06 0.12 0.19 0.27 0.46 0.47 0.37 0.07 0.02 0.08 0.13 0.15 0.21 0.12 0.09 0.08 0.07 0.05 0.03 0.06 0.02 0.03 0.07 0.03
0.00 0.00 0.00 0.00 0.00 0.01 0.05 0.18 0.10 0.45 0.21 0.12 0.09 0.05 0.03 0.05 0.04 0.03 0.04 0.05 0.05 0.10 0.20 0.17 0.28 0.47 0.30 0.42 0.17 0.61 0.86 0.99 0.37 0.09 0.04 0.03 0.09 0.22 0.24 0.17 0.16 0.22 0.20 0.14 0.03 0.01 0.01 0.03 0.04